�������l�o���
Date,Time,MP-1(��Sv/h),MP-2(��Sv/h),MP-3(��Sv/h),MP-4(��Sv/h),MP-5(��Sv/h),MP-6(��Sv/h),MP-7(��Sv/h),MP-8(��Sv/h),����,����(m/s),���J
2023/11/15,00:00,0.513,0.773,0.485,0.974,0.700,0.312,0.563,0.524,�k��,3.7,��
2023/11/15,00:10,0.513,0.773,0.484,0.971,0.702,0.310,0.563,0.523,��,2.6,��
2023/11/15,00:20,0.512,0.774,0.484,0.971,0.702,0.312,0.562,0.525,��,2.6,��
2023/11/15,00:30,0.513,0.775,0.482,0.973,0.703,0.311,0.561,0.524,��,3.0,��
2023/11/15,00:40,0.514,0.774,0.483,0.972,0.703,0.312,0.562,0.524,���k��,2.0,��
2023/11/15,00:50,0.512,0.776,0.483,0.974,0.702,0.312,0.562,0.524,�k��,1.5,��
2023/11/15,01:00,0.513,0.775,0.482,0.972,0.703,0.311,0.562,0.524,�k�k��,3.1,��
2023/11/15,01:10,0.513,0.774,0.484,0.972,0.703,0.312,0.561,0.526,�k��,4.8,��
2023/11/15,01:20,0.511,0.775,0.484,0.972,0.702,0.311,0.562,0.525,�k��,5.8,��
2023/11/15,01:30,0.512,0.777,0.484,0.971,0.703,0.312,0.562,0.525,�k��,5.4,��
2023/11/15,01:40,0.511,0.773,0.484,0.973,0.701,0.312,0.563,0.522,�k��,4.9,��
2023/11/15,01:50,0.512,0.774,0.481,0.972,0.701,0.311,0.563,0.524,�k��,6.5,��
2023/11/15,02:00,0.512,0.774,0.485,0.972,0.703,0.312,0.562,0.525,�k��,5.3,��
2023/11/15,02:10,0.511,0.775,0.484,0.972,0.703,0.312,0.561,0.523,�k��,6.0,��
2023/11/15,02:20,0.513,0.775,0.483,0.972,0.702,0.311,0.560,0.524,�k��,5.1,��
2023/11/15,02:30,0.513,0.776,0.483,0.974,0.702,0.311,0.562,0.525,�k��,5.3,��
2023/11/15,02:40,0.513,0.774,0.485,0.972,0.700,0.312,0.560,0.522,�k��,4.8,��
2023/11/15,02:50,0.514,0.773,0.484,0.974,0.701,0.311,0.562,0.523,�k��,5.5,��
2023/11/15,03:00,0.512,0.774,0.484,0.972,0.703,0.311,0.561,0.524,�k��,3.9,��
2023/11/15,03:10,0.512,0.774,0.484,0.972,0.701,0.312,0.562,0.524,�k��,3.7,��
2023/11/15,03:20,0.513,0.774,0.483,0.972,0.702,0.312,0.561,0.523,���k��,2.6,��
2023/11/15,03:30,0.512,0.774,0.483,0.972,0.701,0.311,0.561,0.524,�k��,2.9,��
2023/11/15,03:40,0.512,0.775,0.483,0.973,0.701,0.313,0.559,0.524,�k��,2.5,��
2023/11/15,03:50,0.512,0.774,0.483,0.972,0.703,0.312,0.562,0.524,���k��,3.9,��
2023/11/15,04:00,0.513,0.775,0.483,0.972,0.702,0.312,0.560,0.524,���k��,4.4,��
2023/11/15,04:10,0.514,0.773,0.482,0.972,0.705,0.311,0.560,0.525,���k��,4.9,��
2023/11/15,04:20,0.512,0.772,0.483,0.970,0.702,0.312,0.561,0.523,���k��,3.6,��
2023/11/15,04:30,0.513,0.774,0.483,0.973,0.702,0.312,0.562,0.525,���k��,3.4,��
2023/11/15,04:40,0.512,0.773,0.484,0.970,0.701,0.311,0.561,0.524,�k��,4.3,��
2023/11/15,04:50,0.512,0.774,0.483,0.974,0.702,0.312,0.562,0.525,�k��,4.1,��
2023/11/15,05:00,0.513,0.774,0.483,0.972,0.703,0.312,0.560,0.525,�k��,5.1,��
2023/11/15,05:10,0.514,0.775,0.484,0.973,0.704,0.311,0.561,0.524,�k��,6.3,��
2023/11/15,05:20,0.511,0.774,0.483,0.972,0.704,0.311,0.561,0.525,�k��,4.2,��
2023/11/15,05:30,0.511,0.776,0.483,0.974,0.702,0.311,0.561,0.525,�k��,2.0,��
2023/11/15,05:40,0.513,0.775,0.482,0.974,0.703,0.313,0.561,0.526,�k��,1.7,��
2023/11/15,05:50,0.512,0.774,0.482,0.972,0.701,0.313,0.563,0.525,�k��,3.4,��
2023/11/15,06:00,0.512,0.775,0.482,0.973,0.703,0.312,0.562,0.526,�k��,3.0,��
2023/11/15,06:10,0.511,0.776,0.484,0.974,0.702,0.312,0.560,0.523,�k��,3.9,��
2023/11/15,06:20,0.512,0.774,0.484,0.972,0.701,0.312,0.562,0.525,�k��,4.4,��
2023/11/15,06:30,0.513,0.775,0.485,0.972,0.702,0.311,0.561,0.524,���k��,3.7,��
2023/11/15,06:40,0.513,0.775,0.484,0.975,0.703,0.312,0.560,0.524,�k��,3.4,��
2023/11/15,06:50,0.513,0.775,0.483,0.974,0.701,0.311,0.560,0.523,�k��,3.6,��
2023/11/15,07:00,0.512,0.775,0.483,0.972,0.700,0.312,0.561,0.524,��,3.0,��
2023/11/15,07:10,0.511,0.774,0.483,0.975,0.702,0.311,0.561,0.524,��,2.6,�L
2023/11/15,07:20,0.511,0.775,0.483,0.974,0.702,0.312,0.561,0.524,���쐼,2.6,�L
2023/11/15,07:30,0.511,0.774,0.485,0.975,0.703,0.311,0.561,0.525,���쐼,1.5,�L
2023/11/15,07:40,0.513,0.774,0.483,0.973,0.701,0.313,0.562,0.524,���쐼,1.5,�L
2023/11/15,07:50,0.512,0.772,0.484,0.974,0.701,0.313,0.561,0.525,��,1.1,�L
2023/11/15,08:00,0.510,0.771,0.484,0.974,0.699,0.312,0.561,0.525,���쐼,0.9,�L
2023/11/15,08:10,0.507,0.770,0.482,0.973,0.700,0.312,0.559,0.525,��,0.9,�L
2023/11/15,08:20,0.507,0.771,0.479,0.972,0.699,0.312,0.559,0.524,-,CALM,�L
2023/11/15,08:30,0.508,0.768,0.478,0.973,0.700,0.311,0.561,0.525,��쐼,0.6,�L
2023/11/15,08:40,0.507,0.769,0.478,0.972,0.697,0.311,0.561,0.525,�쐼,0.6,�L
2023/11/15,08:50,0.507,0.768,0.473,0.974,0.697,0.310,0.561,0.523,��,0.9,�L
2023/11/15,09:00,0.508,0.769,0.466,0.973,0.696,0.310,0.559,0.524,���쐼,1.5,�L
2023/11/15,09:10,0.506,0.770,0.466,0.970,0.696,0.311,0.559,0.524,���쐼,1.5,�L
2023/11/15,09:20,0.509,0.770,0.463,0.972,0.698,0.311,0.559,0.523,���쐼,1.7,�L
2023/11/15,09:30,0.507,0.768,0.469,0.971,0.697,0.311,0.560,0.525,���쐼,2.0,�L
2023/11/15,09:40,0.509,0.770,0.475,0.972,0.699,0.311,0.559,0.523,��,1.5,��
2023/11/15,09:50,0.509,0.768,0.475,0.971,0.699,0.311,0.558,0.524,��,1.2,�L
2023/11/15,10:00,0.507,0.769,0.474,0.971,0.698,0.313,0.561,0.523,���쐼,1.5,�L
2023/11/15,10:10,0.509,0.769,0.466,0.970,0.698,0.310,0.559,0.526,�k��,1.4,�L
2023/11/15,10:20,0.506,0.768,0.473,0.970,0.697,0.310,0.558,0.524,�k��,1.4,�L
2023/11/15,10:30,0.506,0.765,0.475,0.971,0.695,0.311,0.559,0.525,��,1.1,�L
2023/11/15,10:40,0.506,0.768,0.471,0.971,0.697,0.310,0.559,0.524,���k��,1.5,��
2023/11/15,10:50,0.511,0.769,0.470,0.970,0.698,0.311,0.559,0.524,��,0.9,��
2023/11/15,11:00,0.510,0.771,0.471,0.968,0.696,0.312,0.558,0.523,�k�k��,1.1,�L
2023/11/15,11:10,0.513,0.771,0.470,0.968,0.696,0.312,0.559,0.524,�k,1.9,�L
2023/11/15,11:20,0.509,0.771,0.469,0.972,0.697,0.312,0.559,0.526,�k,1.9,��
2023/11/15,11:30,0.512,0.768,0.472,0.975,0.697,0.311,0.559,0.524,�k��,1.7,�L
2023/11/15,11:40,0.511,0.769,0.471,0.973,0.697,0.312,0.557,0.525,�k�k��,2.0,��
2023/11/15,11:50,0.510,0.772,0.472,0.972,0.696,0.311,0.558,0.524,���k��,1.2,��
2023/11/15,12:00,0.511,0.769,0.473,0.971,0.698,0.310,0.558,0.524,�k��,1.1,��
2023/11/15,12:10,0.511,0.771,0.476,0.972,0.699,0.310,0.559,0.525,-,CALM,�L
2023/11/15,12:20,0.511,0.769,0.475,0.971,0.699,0.311,0.559,0.525,�k�k��,0.9,��
2023/11/15,12:30,0.509,0.770,0.477,0.971,0.697,0.311,0.560,0.526,�k�k��,0.9,��
2023/11/15,12:40,0.511,0.769,0.476,0.972,0.696,0.312,0.558,0.524,-,CALM,��
2023/11/15,12:50,0.511,0.770,0.471,0.971,0.697,0.312,0.560,0.524,�k�k��,2.3,��
2023/11/15,13:00,0.512,0.768,0.467,0.972,0.697,0.312,0.559,0.524,�k,1.2,��
2023/11/15,13:10,0.510,0.769,0.474,0.972,0.696,0.311,0.560,0.525,�k�k��,1.5,��
2023/11/15,13:20,0.510,0.769,0.472,0.971,0.696,0.313,0.557,0.524,�k,1.5,��
2023/11/15,13:30,0.509,0.769,0.477,0.972,0.697,0.311,0.558,0.524,�k�k��,2.6,��
2023/11/15,13:40,0.509,0.768,0.482,0.972,0.696,0.311,0.559,0.522,�k�k��,1.7,��
2023/11/15,13:50,0.510,0.767,0.483,0.970,0.695,0.311,0.558,0.523,�k,2.0,��
2023/11/15,14:00,0.510,0.767,0.482,0.972,0.695,0.311,0.559,0.523,�k�k��,1.9,��
2023/11/15,14:10,0.510,0.767,0.480,0.972,0.698,0.311,0.560,0.521,�k,1.7,��
2023/11/15,14:20,0.510,0.767,0.482,0.973,0.698,0.311,0.561,0.522,�k,2.2,��
2023/11/15,14:30,0.510,0.768,0.482,0.969,0.696,0.311,0.559,0.524,�k,2.0,��
2023/11/15,14:40,0.510,0.771,0.482,0.976,0.697,0.312,0.560,0.522,�k,2.3,��
2023/11/15,14:50,0.509,0.773,0.483,0.972,0.699,0.312,0.560,0.524,�k�k��,2.3,��
2023/11/15,15:00,0.511,0.772,0.483,0.973,0.698,0.312,0.560,0.525,�k�k��,2.3,��
2023/11/15,15:10,0.509,0.772,0.483,0.971,0.697,0.312,0.560,0.526,�k,2.5,��
2023/11/15,15:20,0.511,0.773,0.484,0.972,0.699,0.312,0.560,0.525,�k,1.7,��
2023/11/15,15:30,0.510,0.774,0.484,0.973,0.699,0.313,0.562,0.526,�k�k��,1.5,��
2023/11/15,15:40,0.511,0.772,0.484,0.973,0.696,0.312,0.561,0.526,�k,2.2,��
2023/11/15,15:50,0.511,0.773,0.483,0.974,0.699,0.312,0.560,0.524,�k,2.2,��
2023/11/15,16:00,0.513,0.773,0.483,0.971,0.699,0.312,0.561,0.524,�k,2.5,��
2023/11/15,16:10,0.514,0.773,0.484,0.972,0.700,0.312,0.562,0.525,�k�k��,2.3,��
2023/11/15,16:20,0.512,0.773,0.484,0.974,0.699,0.311,0.560,0.526,�k�k��,1.7,��
2023/11/15,16:30,0.513,0.775,0.483,0.973,0.700,0.312,0.561,0.525,�k�k��,2.0,��
2023/11/15,16:40,0.512,0.773,0.482,0.973,0.700,0.311,0.560,0.524,�k��,1.9,��
2023/11/15,16:50,0.513,0.774,0.482,0.972,0.701,0.311,0.562,0.524,�k�k��,2.3,��
2023/11/15,17:00,0.512,0.773,0.483,0.973,0.699,0.312,0.561,0.525,�k��,3.0,��
2023/11/15,17:10,0.512,0.773,0.482,0.973,0.698,0.311,0.562,0.524,�k��,2.9,��
2023/11/15,17:20,0.511,0.772,0.482,0.973,0.698,0.312,0.562,0.524,�k��,3.2,��
2023/11/15,17:30,0.511,0.775,0.483,0.972,0.699,0.312,0.563,0.525,�k��,3.5,��
2023/11/15,17:40,0.512,0.774,0.483,0.971,0.699,0.311,0.562,0.524,�k��,3.1,��
2023/11/15,17:50,0.513,0.773,0.483,0.973,0.700,0.312,0.562,0.524,�k��,3.1,��
2023/11/15,18:00,0.512,0.773,0.483,0.973,0.699,0.312,0.560,0.524,���k��,3.0,��
2023/11/15,18:10,0.511,0.772,0.483,0.974,0.701,0.311,0.562,0.525,���k��,3.2,��
2023/11/15,18:20,0.511,0.771,0.484,0.971,0.701,0.312,0.562,0.524,���k��,3.3,��
2023/11/15,18:30,0.512,0.771,0.483,0.975,0.700,0.312,0.562,0.525,���k��,3.4,��
2023/11/15,18:40,0.512,0.775,0.483,0.975,0.699,0.312,0.562,0.524,���k��,3.8,��
2023/11/15,18:50,0.511,0.774,0.482,0.972,0.699,0.311,0.560,0.525,�k��,4.6,��
2023/11/15,19:00,0.511,0.772,0.483,0.973,0.701,0.312,0.561,0.524,�k��,4.4,��
2023/11/15,19:10,0.509,0.772,0.483,0.974,0.698,0.313,0.562,0.523,�k��,4.2,��
2023/11/15,19:20,0.513,0.774,0.484,0.973,0.699,0.312,0.561,0.523,�k��,4.9,��
2023/11/15,19:30,0.512,0.774,0.481,0.973,0.701,0.312,0.561,0.524,�k��,5.1,��
2023/11/15,19:40,0.512,0.773,0.482,0.975,0.698,0.313,0.561,0.523,�k��,5.7,��
2023/11/15,19:50,0.509,0.773,0.483,0.973,0.699,0.311,0.561,0.525,�k��,5.0,��
2023/11/15,20:00,0.511,0.773,0.482,0.971,0.701,0.310,0.561,0.524,�k��,5.1,��
2023/11/15,20:10,0.511,0.772,0.483,0.976,0.700,0.311,0.563,0.524,�k��,4.9,��
2023/11/15,20:20,0.512,0.771,0.484,0.975,0.698,0.312,0.561,0.524,�k��,5.3,��
2023/11/15,20:30,0.512,0.774,0.484,0.974,0.699,0.312,0.562,0.523,�k��,5.4,��
2023/11/15,20:40,0.514,0.772,0.481,0.975,0.701,0.312,0.561,0.524,�k��,5.6,��
2023/11/15,20:50,0.511,0.771,0.482,0.974,0.702,0.311,0.561,0.524,�k��,5.4,��
2023/11/15,21:00,0.512,0.772,0.481,0.974,0.699,0.313,0.562,0.524,�k��,5.3,��
2023/11/15,21:10,0.514,0.773,0.483,0.973,0.701,0.311,0.561,0.524,�k��,4.9,��
2023/11/15,21:20,0.512,0.772,0.482,0.975,0.701,0.311,0.562,0.527,�k��,5.5,��
2023/11/15,21:30,0.510,0.772,0.483,0.974,0.699,0.312,0.561,0.525,�k��,4.8,��
2023/11/15,21:40,0.511,0.773,0.482,0.974,0.700,0.312,0.563,0.522,�k��,4.7,��
2023/11/15,21:50,0.511,0.771,0.483,0.975,0.699,0.311,0.561,0.524,�k��,5.0,��
2023/11/15,22:00,0.511,0.772,0.483,0.973,0.701,0.311,0.562,0.525,�k��,4.9,��
2023/11/15,22:10,0.511,0.773,0.483,0.975,0.699,0.312,0.562,0.523,�k��,5.1,��
2023/11/15,22:20,0.511,0.772,0.482,0.974,0.699,0.310,0.563,0.525,�k��,5.2,��
2023/11/15,22:30,0.511,0.772,0.482,0.974,0.700,0.312,0.563,0.524,�k��,5.4,��
2023/11/15,22:40,0.511,0.770,0.483,0.975,0.701,0.311,0.562,0.522,�k��,5.3,��
2023/11/15,22:50,0.512,0.772,0.481,0.975,0.701,0.312,0.562,0.523,�k��,5.2,��
2023/11/15,23:00,0.511,0.772,0.482,0.974,0.699,0.312,0.563,0.525,�k��,5.2,��
2023/11/15,23:10,0.512,0.772,0.481,0.974,0.699,0.311,0.564,0.524,�k��,5.3,��
2023/11/15,23:20,0.510,0.771,0.482,0.976,0.698,0.311,0.563,0.523,�k��,5.1,��
2023/11/15,23:30,0.512,0.772,0.482,0.976,0.699,0.312,0.562,0.524,�k��,4.5,��
2023/11/15,23:40,0.511,0.774,0.483,0.974,0.702,0.311,0.562,0.523,�k��,5.1,��
2023/11/15,23:50,0.511,0.773,0.481,0.974,0.699,0.311,0.561,0.524,�k��,4.6,��
